SL-16 DEB, 39902

Orbit data source: Space-Track

SL-16 DEB, 39902 is space debris in LEO originally from a launch on Fri, 26 Mar 1993 UTC launched from the Tyuratam Missile And Space Complex (TTMTR). Debris objects in space refer to the collection of defunct objects orbiting the Earth. Examples of debris include non-operational satellites, rocket bodies, and fragments generated from explosions, collisions, or faulty payload assembly.

Loading next visibility...
Identifier
39902, 1993-016CC
Orbit
LEO
Country
Flag of CISCIS
Related business
Manufacturer
Unknown
Mission
Spacecraft
Bus & Motor
Unknown
Mass
Unknown
Launch date (UTC)
1993-03-26 (33 years ago)
Launch vehicle
Unknown
Launch site
Tyuratam Missile And Space Complex (TTMTR)
Object type
Payload
Rocket body
Debris
Shape & HBR
Unknown shape, 0.1 m
Radar Cross Section
Small (<0.1 m²)

Expand to show TLE details & history
Last TLE update: 1 week ago

TLE from 1 week ago
0 SL-16 DEB
1 39902U 93016CC  26246.32488516  .00000037  00000-0  73579-4 0  9994
2 39902  71.0030 117.4983 0189232  46.3705  71.2200 13.74612578614129
Epoch: 2026-09-03T07:47Z
TLE epoch observation values (Epoch: 2026-09-03T07:47:50.077Z)
Latitude
55.36128°
Longitude
168.3575°
Altitude
949.229 km
Speed
7.404 km/s
True Right ascension
17h 51m 07s
True Declination
55° 12' 16"
Sunlit
Object was in daylight at epoch
Visualization orbit readout
Latitude
Unknown
Longitude
Unknown
Altitude
Unknown
Speed
Unknown
Apparent Right ascension
Unknown
Apparent Declination
Unknown
Sunlit
N/A
Visualization observer readout
Local Sidereal Time
07:38:39
Azimuth
Unknown
Elevation
Unknown
Doppler factor
Unknown
Orbital elements
Apogee altitude
1,120.28 km
Perigee altitude
841.762 km
Semi-major axis
7,359.158 km
Eccentricity
0.01892
Inclination
71.003°
RAAN
117.4983°
Arg. of periapsis
46.3705°
True anomaly
73.28829°
Mean anomaly
71.22°
Eccentric anomaly
72.25262°
Mean motion
3.43796 °/min
Orbital period
104.71 mins
BSTAR
0.000073579
Loading maneuver chart data...
Computing Atmospheric mass density...
Loading historical data...
Loading historical data...
Loading historical data...
Loading historical data...
Loading historical data...
Loading historical data...
Loading historical data...

Documentation

Showing up to 5 results
|